Regional Weather Roundup
Issued by NWS

Home | Current Version | Previous Version | Text Only | Print | Product List | Glossary On
Versions: 1 2 3 4 5 6 7 8 9 10 11 12 13 14 15 16 17 18 19 20 21 22 23 24 25 26 27 28 29 30 31 32 33 34 35 36 37 38 39 40 41 42 43 44 45 46 47 48 49 50
000
ASUS46 KPQR 060510
RWROR

OREGON REGIONAL WEATHER ROUNDUP
NATIONAL WEATHER SERVICE PORTLAND OR
1000 PM PDT TUE MAY 05 2015

NOTE: "FAIR" INDICATES FEW OR NO CLOUDS BELOW 12,000 FEET WITH
NO SIGNIFICANT WEATHER AND/OR OBSTRUCTIONS TO VISIBILITY.

ORZ001>013-060600-
NORTHWEST OREGON


CITY           SKY/WX    TMP DP  RH WIND       PRES   REMARKS
ASTORIA        CLOUDY    48  44  86 SE3       30.11S
NEWPORT        CLEAR     45  43  93 CALM      30.18  FOG
PORTLAND       PTCLDY    53  39  59 N6        30.12R
VANCOUVER WA   PTCLDY    53  38  56 N3        30.11R
SCAPPOOSE      PTCLDY    49  39  68 CALM      30.11R
HILLSBORO      PTCLDY    46  39  76 W3        30.11R
AURORA         CLEAR     50  38  63 CALM      30.12R
MCMINNVILLE    CLEAR     48  40  73 W6        30.13R
SALEM          CLEAR     50  40  68 W8        30.11R
CORVALLIS      CLEAR     48  39  71 NW5       30.14R
EUGENE         PTCLDY    47  40  76 NE9       30.12R
$$

ORZ021-028-060600-
SOUTHWEST OREGON


CITY           SKY/WX    TMP DP  RH WIND       PRES   REMARKS
NORTH BEND     CLEAR     52  48  87 N5        30.16R
BROOKINGS      CLEAR     52  42  68 NW8       30.05R
ROSEBURG       CLOUDY    54  38  54 NW7       30.11R
SEXTON SUMMIT  MOCLDY    38  34  85 MISG      30.04R
MEDFORD        CLEAR     53  34  48 N5        30.03R
$$

ORZ014>016-041-060600-
COLUMBIA GORGE


CITY           SKY/WX    TMP DP  RH WIND       PRES   REMARKS
TROUTDALE      PTCLDY    54  39  57 VRB5      30.10R
THE DALLES     CLEAR     50  39  66 NW7       30.06R
$$

ORZ029>031-041-044-049-050-061>064-502-503-505>511-060600-
EASTERN OREGON


CITY           SKY/WX    TMP DP  RH WIND       PRES   REMARKS
REDMOND        CLEAR     43  27  53 NW6       30.03R
BEND           CLEAR     43  25  49 NW7       30.03R
PRINEVILLE     CLEAR     43  30  61 N7        30.02R
KLAMATH FALLS  CLEAR     45  26  47 NW5       29.99R
LAKEVIEW       CLEAR     45  19  36 N10       29.98R
HERMISTON      PTCLDY    51  33  50 SW10      30.01R
PENDLETON      CLOUDY    51  31  46 W16       29.99R
JOHN DAY       CLEAR     48  27  44 W6        29.98R
MEACHAM        PTCLDY    38  28  67 CALM      30.01R
LA GRANDE      CLEAR     46  19  34 W12       29.99R
BAKER CITY     CLEAR     39  24  55 NW8       29.99R WCI  33
BURNS          CLOUDY    46  17  31 NW12      29.94R
ROME             N/A     52  19  27 N8        29.89R
ONTARIO        CLEAR     56  21  25 NW22G29   29.88R
$$



USA.gov is the U.S. government's official web portal to all federal, state and local government web resources and services.